This demonstration page uses our WeatherBlox Daily Observations layout. Learn more.

Left ArrowRight Arrow

53.62937, 11.41316

Hourly Observations for November 28, 2018

Temp ( °F °C ) Dew Point ( °F °C ) Humidity (%) Winds ( mph kmh ) Pressure ( in mb ) Visibility ( mi km ) Precip ( " mm )
7:20 am 07:20 Mostly Clear 32 0 23 -5 69 69 SE 6 9 30.30 1026 30 48 N/A
7:50 am 07:50 Mostly Clear 32 0 23 -5 69 69 SE 6 9 30.33 1027 30 48 N/A
8:20 am 08:20 Mostly Sunny 32 0 23 -5 69 69 SE 6 9 30.33 1027 7 11 N/A
8:50 am 08:50 Mostly Sunny 32 0 25 -4 75 75 SE 7 11 30.33 1027 7 11 N/A
9:20 am 09:20 Mostly Sunny 34 1 25 -4 70 70 SE 7 11 30.33 1027 7 11 N/A
9:50 am 09:50 Mostly Sunny 34 1 25 -4 70 70 SE 9 15 30.33 1027 7 11 N/A
10:20 am 10:20 Mostly Sunny 34 1 25 -4 70 70 SE 10 17 30.33 1027 7 11 N/A
10:50 am 10:50 Mostly Sunny 34 1 25 -4 70 70 SE 9 15 30.33 1027 7 11 N/A
11:20 am 11:20 Mostly Sunny 36 2 23 -5 60 60 SE 12 19 30.30 1026 7 11 N/A
11:50 am 11:50 Mostly Sunny 36 2 23 -5 60 60 SE 14 22 30.30 1026 30 48 N/A
12:20 pm 12:20 Mostly Sunny 36 2 23 -5 60 60 SE 14 22 30.30 1026 7 11 N/A
12:50 pm 12:50 Mostly Sunny 34 1 23 -5 65 65 SSE 13 20 30.30 1026 7 11 N/A
1:20 pm 13:20 Mostly Sunny 36 2 23 -5 60 60 SSE 13 20 30.30 1026 7 11 N/A
1:50 pm 13:50 Mostly Sunny 34 1 25 -4 70 70 SSE 10 17 30.27 1025 7 11 N/A
2:20 pm 14:20 Mostly Sunny 34 1 25 -4 70 70 SE 10 17 30.27 1025 7 11 N/A
2:50 pm 14:50 Mostly Sunny 34 1 25 -4 70 70 SSE 9 15 30.27 1025 7 11 N/A
3:20 pm 15:20 Mostly Sunny 34 1 25 -4 70 70 SE 10 17 30.27 1025 7 11 N/A
3:50 pm 15:50 Mostly Sunny 34 1 25 -4 70 70 SE 13 20 30.24 1024 7 11 N/A
4:20 pm 16:20 Mostly Clear 34 1 25 -4 70 70 SE 13 20 30.24 1024 7 11 N/A
4:50 pm 16:50 Mostly Clear 34 1 25 -4 70 70 SE 13 20 30.24 1024 7 11 N/A
5:20 pm 17:20 Mostly Clear 34 1 25 -4 70 70 SE 14 22 30.24 1024 7 11 N/A
5:50 pm 17:50 Mostly Clear 34 1 23 -5 65 65 SE 14 22 30.24 1024 7 11 N/A
6:20 pm 18:20 Mostly Clear 34 1 25 -4 70 70 SE 14 22 30.24 1024 7 11 N/A
6:50 pm 18:50 Mostly Clear 34 1 25 -4 70 70 SE 13 20 30.21 1023 7 11 N/A

Powered by AerisWeather